PDT,Max TemperatureF,Mean TemperatureF,Min TemperatureF,Max Dew PointF,MeanDew PointF,Min DewpointF,Max Humidity, Mean Humidity, Min Humidity, Max Sea Level PressureIn, Mean Sea Level PressureIn, Min Sea Level PressureIn, Max VisibilityMiles, Mean VisibilityMiles, Min VisibilityMiles, Max Wind SpeedMPH, Mean Wind SpeedMPH, Max Gust SpeedMPH,PrecipitationIn, CloudCover, Events, WindDirDegrees
2008-6-1,57,54,50,50,46,43,93,80,66,30.20,30.18,30.15,10,10,10,13,2,17,T,8,,344
2008-6-2,63,56,48,52,47,41,93,74,55,30.19,30.08,29.96,10,9,4,12,3,15,T,7,Rain,236
2008-6-3,63,56,48,54,49,43,100,78,55,29.98,29.89,29.83,10,8,1,20,7,24,0.21,7,Rain,203
2008-6-4,59,51,43,47,44,42,93,73,53,30.09,30.05,29.99,10,10,10,12,3,15,0.02,7,Rain,299
2008-6-5,59,51,43,50,46,42,100,86,71,30.03,29.93,29.88,10,10,5,17,6,24,0.04,8,Rain,202
2008-6-6,60,53,46,48,45,42,93,75,57,30.16,30.04,29.96,10,10,7,20,9,24,0.01,7,Rain,208
2008-6-7,60,51,42,47,45,40,100,77,53,30.28,30.23,30.16,10,9,2,14,4,18,0.02,6,Rain,306
2008-6-8,70,57,44,51,45,41,93,69,45,30.28,30.18,30.04,10,10,10,9,3,13,0.00,6,,323
2008-6-9,64,55,45,52,45,36,86,69,52,30.05,29.98,29.92,10,10,8,22,10,30,0.01,7,Rain,207
2008-6-10,56,50,44,45,43,39,86,74,61,30.29,30.15,30.02,10,10,10,14,8,20,T,8,Rain,233
2008-6-11,60,54,47,46,43,37,86,69,51,30.32,30.30,30.27,10,10,10,8,3,12,0.00,8,,356
2008-6-12,71,56,41,52,46,40,93,69,44,30.31,30.26,30.18,10,10,8,9,3,15,0.00,3,,339
2008-6-13,74,59,43,55,45,33,93,58,23,30.22,30.17,30.13,10,10,8,18,6,25,0.00,1,,328
2008-6-14,69,53,37,45,42,36,92,67,42,30.26,30.20,30.13,10,10,10,16,7,20,0.00,0,,319
2008-6-15,74,59,43,49,45,41,96,67,38,30.19,30.13,30.06,10,10,10,13,5,17,0.00,2,,321
2008-6-16,75,58,41,52,46,40,93,67,41,30.13,30.07,30.03,10,10,10,13,4,16,0.00,1,,337
2008-6-17,66,54,41,49,44,39,93,71,48,30.31,30.27,30.15,10,10,10,9,3,13,0.00,6,,349
2008-6-18,67,57,46,47,45,42,93,71,48,30.33,30.28,30.19,10,10,10,8,2,12,0.00,5,,9
2008-6-19,78,61,44,52,46,42,93,63,32,30.18,30.12,30.03,10,10,10,8,1,,0.00,0,,214
2008-6-20,82,64,46,60,50,45,93,61,28,30.03,29.99,29.93,10,9,2,13,2,15,0.00,0,,189
2008-6-21,82,67,51,57,50,35,96,59,21,30.12,29.95,29.89,10,10,10,17,6,23,T,0,,257
2008-6-22,72,61,49,53,49,45,93,66,38,30.23,30.19,30.14,10,10,10,16,5,20,T,4,,314
2008-6-23,72,57,41,47,42,35,93,61,29,30.18,30.16,30.12,10,10,10,8,2,10,0.00,1,,317
2008-6-24,76,57,38,50,44,37,93,62,31,30.23,30.16,30.07,10,10,10,14,4,16,0.00,0,,331
2008-6-25,78,62,46,53,48,43,86,61,36,30.14,30.09,30.03,10,10,10,20,7,23,0.00,1,,311
2008-6-26,70,58,46,51,46,42,86,67,47,30.27,30.20,30.15,10,10,10,10,3,16,0.00,4,,330
2008-6-27,90,70,49,59,52,46,89,59,29,30.17,30.04,29.91,10,10,10,10,5,15,0.00,0,,349
2008-6-28,101,80,59,67,56,52,75,48,21,29.94,29.88,29.80,10,10,10,18,4,24,0.00,0,,338
2008-6-29,89,76,62,67,61,56,87,65,43,29.96,29.92,29.85,10,10,7,20,4,25,0.05,0,Rain-Thunderstorm,92
2008-6-30,88,73,57,65,59,53,93,67,40,30.00,29.95,29.90,10,8,6,10,3,13,0.00,0,,7